AirNav   Everest Fuels
 
 1003 users online  

42V Jones Airport
Benkelman, Nebraska, USA

GOING TO BENKELMAN?


FAA INFORMATION EFFECTIVE 02 DECEMBER 2021

Location

FAA Identifier: 42V
Lat/Long: 40-03-28.9800N 101-32-48.6010W
40-03.483000N 101-32.810017W
40.0580500,-101.5468336
(estimated)
Elevation: 3126 ft. / 953 m (estimated)
Variation: 09E (1985)
From city: 1 mile NW of BENKELMAN, NE
Time zone: UTC -7 (UTC -6 during Daylight Saving Time)
Zip code: 69021

Airport Operations

Airport use: Open to the public
Activation date: 11/1954
Control tower: no
ARTCC: DENVER CENTER
FSS: COLUMBUS FLIGHT SERVICE STATION
NOTAMs facility: OLU (NOTAM-D service available)
Attendance: DAYLIGHT HOURS
Wind indicator: yes
Segmented circle: no

Airport Communications

CTAF: 122.9

Nearby radio navigation aids

VOR radial/distance  VOR name  Freq  Var
HCTr219/37.1HAYES CENTER VORTAC117.7011E

 
NDB name  Hdg/Dist  Freq  Var  ID
ST FRANCIS021/22.238606ESYF ... -.-- ..-.

Airport Services

Parking: tiedowns
Airframe service: NONE
Powerplant service: NONE
Bottled oxygen: NONE
Bulk oxygen: NONE

Runway Information

Runway 15/33

Dimensions: 3500 x 25 ft. / 1067 x 8 m
Surface: concrete
RUNWAY 15  RUNWAY 33
Traffic pattern: leftleft
Displaced threshold: no1000 ft.
Obstructions: 17 ft. road, 550 ft. from runway, 32:1 slope to clearnone
+16 FT ROAD 105 FT FM EOR L/R.

Airport Ownership and Management from official FAA records

Ownership: Privately-owned
Owner: STAN JONES
BOX 685
BENKELMAN, NE 69021
Phone 308-423-2941
Manager: STAN JONES
BOX 685
BENKELMAN, NE 69021
Phone 308-423-2941
ALTN NR 308-883-0047

Airport Operational Statistics

Aircraft based on the field: 6
Single engine airplanes: 5
Multi engine airplanes: 1
    
Aircraft operations: avg 63/week *
91% local general aviation
9% transient general aviation
* for 12-month period ending 09 October 1996

Additional Remarks

NEW CROSSWIND RY UNDER CONSTRUCTION WEST OF RY 15/33.
FOR CD CTC DENVER ARTCC AT 303-651-4257.

Instrument Procedures

There are no published instrument procedures at 42V.

Some nearby airports with instrument procedures:

KSYF - Cheyenne County Municipal Airport (21 nm SW)
KADT - Atwood-Rawlins County City-County Airport (27 nm SE)
KIML - Imperial Municipal Airport (27 nm N)
2V5 - Wray Municipal Airport (32 nm W)
KGLD - Renner Field (Goodland Municipal Airport) (42 nm S)
 
Loc | Ops | Rwys | IFR | FBO | Links
Com | Nav | Svcs | Stats | Notes

AirBoss

 
Area around 42V (Jones Airport)
 
Road maps at: MapQuest Bing Google
 
Aerial photo
WARNING: Photo may not be current or correct
Aerial photo of 42V (Jones Airport)
Do you have a better or more recent aerial photo of Jones Airport that you would like to share? If so, please send us your photo.

 
Sectional chart

 
Airport distance calculator
Flying to Jones Airport? Find the distance to fly.

From to 42V

Sunrise and sunset
Times for 04-Dec-2021
 Local
(UTC-7)
 Zulu
(UTC)
Morning civil twilight06:2313:23
Sunrise06:5313:53
Sunset16:2023:20
Evening civil twilight16:5023:50

Current date and time
Zulu (UTC)  04-Dec-2021 15:38:47
Local (UTC-7)  04-Dec-2021 08:38:47
 
METAR
KSYF 
21nm SW 
041515Z AUTO 22005KT 10SM CLR 00/M02 A3022 RMK AO2 T00001025 PWINO
KADT 
27nm SE 
041510Z AUTO 00000KT 10SM CLR 00/M03 A3029 RMK AO2 T10031028
KIML 
28nm N 
041453Z AUTO 09003KT 10SM CLR M02/M05 A3022 RMK AO2 SLP260 T10221050 53009 $
K2V5 
32nm W 
041515Z AUTO 19006KT 10SM CLR 02/M02 A3018 RMK AO2
KGLD 
42nm S 
041453Z AUTO 18006KT 10SM CLR M01/M03 A3020 RMK AO2 SLP247 T10061033 53006
TAF
KGLD 
42nm S 
041120Z 0412/0512 17010KT P6SM FEW250 FM041700 18015G25KT P6SM FEW250 FM050100 18012G20KT P6SM SKC FM050700 21015KT P6SM FEW250 FM051100 26010KT P6SM FEW250
KMCK 
45nm E 
041259Z 0413/0512 10004KT P6SM FEW250 TEMPO 0414/0416 5SM BR OVC005 FM041800 16010G20KT P6SM SCT250 FM042100 17015G25KT P6SM FEW250 FM050500 19012KT P6SM FEW250 WS020/22035KT FM051100 24009KT P6SM FEW250
NOTAMs
Click for the latest NOTAMs
NOTAMs are issued by the DoD/FAA and will open in a separate window not controlled by AirNav.

 

 
 

Would you like to see your business listed on this page?

 If your business provides an interesting product or service to pilots, flight crews, aircraft, or users of the Jones Airport, you should consider listing it here.  To start the listing process, click on the button below
 
Add a business
 

Other Pages about Jones Airport

Update a link
 
Copyright © AirNav, LLC. All rights reserved. Privacy Policy  Contact